Terug naar catalogus

HULIANWANG DIGUI-133

ActiefCommunicatieLEO
NORAD 67241·PAYLOAD·🇨🇳 China

Gelanceerd Dec 25, 2025 vanaf Wenchang Space Launch Site

Loading…

Volgende Passages (komende 24 uur)

TLE

VersSource: Space-Track

Epoch: Sep 14, 2026, 03:34 UTC

1 67241U 25311F   26257.14929312 -.00000070  00000-0  11574-3 0  9994
2 67241  50.0098 156.7749 0000269 316.7972  43.2879 13.29327449 35178

Volg HULIANWANG DIGUI-133 in realtime met AllMySat

Download on the App Store